Regional Weather Roundup
Issued by NWS Kansas City/Pleasant Hill, MO

Home | Current Version | Previous Version | Text Only | Print | Product List | Glossary On
Versions: 1 2 3 4 5 6 7 8 9 10 11 12 13 14 15 16 17 18 19 20 21 22 23 24 25 26 27 28 29 30 31 32 33 34 35 36 37 38 39 40 41 42 43 44 45 46 47 48 49 50
000
ASUS43 KEAX 282010
RWREAX

WEATHER ROUNDUP FOR EASTERN KANSAS AND NORTHWEST MISSOURI
NATIONAL WEATHER SERVICE KANSAS CITY/PLEASANT HILL MO
300 PM CDT THU JUL 28 2016

KSZ040-057-103>105-MOZ028-029-037-043-282100-
...KANSAS CITY METROPOLITAN AREA...

CITY           SKY/WX    TMP DP  RH WIND       PRES   REMARKS
K.C. INTL      MOSUNNY   88  70  55 N13       29.95F HX  93
K.C. DOWNTOWN  PTSUNNY   89  67  47 N8        29.93F HX  92
LEES SUMMIT    MOSUNNY   90  69  50 N9        29.95F HX  94
OLATHE - IXD   SUNNY     90  67  46 N8        29.96F HX  93
OLATHE - OJC   MOSUNNY   90  64  42 N10       29.95F HX  91
LAWRENCE       SUNNY     91  68  46 N5        29.95S HX  95

$$

MOZ001>008-011>017-020>025-030>033-038>040-044>046-053-054-282100-
...NORTHERN AND CENTRAL MISSOURI...

CITY           SKY/WX    TMP DP  RH WIND       PRES   REMARKS
ST. JOSEPH     SUNNY     87  69  54 N9        29.96S HX  91
MOSBY          PTCLDY    88  64  45 N12       29.94S
WHITEMAN AFB   NOT AVBL
CLINTON        SUNNY     90  73  58 NW7       29.92F HX  98
SEDALIA        MOSUNNY   88  73  61 N8        29.94S HX  95
WARSAW         NOT AVBL
CHILLICOTHE      N/A     88  68  51 N8        29.94F HX  91
KIRKSVILLE     MOSUNNY   87  66  49 N13       29.93F

$$

MOZ041-047>049-056>058-063>065-088>090-097-282100-
...EASTERN AND SOUTHERN MISSOURI...

CITY           SKY/WX    TMP DP  RH WIND       PRES   REMARKS
ST. LOUIS INTL MOSUNNY   90  69  50 NW12      29.88F HX  94
SPIRIT OF STL  PTSUNNY   89  71  55 W9        29.87F HX  95
COLUMBIA       MOSUNNY   85  73  67 N8        29.91F HX  91
JEFFERSON CITY CLOUDY    87  73  62 VRB3      29.89F HX  94
ROLLA          CLOUDY    87  71  58 N8        29.91F HX  93
OSAGE BEACH    MOSUNNY   87  74  64 VRB3      29.92F HX  95
SPRINGFIELD    PTSUNNY   89  69  51 VRB5      29.94F HX  93
BRANSON        PTSUNNY   90  72  55 CALM      29.96F HX  96
JOPLIN         PTSUNNY   88  72  58 W8        29.95F HX  94
WEST PLAINS    MOSUNNY   90  68  48 SW3       29.95F HX  94

$$

IAZ060-094-KSZ022-034>040-054-083-096-NEZ052-066-093-282100-
...KANSAS...SOUTHEAST NEBRASKA AND IOWA...

CITY           SKY/WX    TMP DP  RH WIND       PRES   REMARKS
TOPEKA         MOSUNNY   91  67  44 N6        29.96R HX  94
MANHATTAN      SUNNY     91  66  43 NE7       29.96F HX  93
EMPORIA        MOSUNNY   90  65  43 VRB3      29.98S HX  92
CHANUTE        PTSUNNY   90  74  59 N5        29.95F HX  99
WICHITA        PTSUNNY   92  70  48 NE9       29.95F HX  97
OMAHA          MOSUNNY   85  64  49 N10       29.99F
LINCOLN        MOSUNNY   87  66  49 NE15      30.00F
FALLS CITY     SUNNY     86  67  52 N12       29.97F
LAMONI         MOSUNNY   83  66  56 N12       29.96F
DES MOINES     PTSUNNY   80  64  58 NW10      29.97S

$$




USA.gov is the U.S. government's official web portal to all federal, state and local government web resources and services.